Location: Unspecified
(43.4680°N, 87.1740°E)
Time: 21:55:46
(UTC+00:00)

BREEZE-M DEB (TANK) - Pass Details

Date: 17 January 2020
Orbit: 277 x 13110 km, 49.6° (Epoch: 25 February)

Event Time Altitude Azimuth Distance (km) Brightness Sun altitude
Exits shadow 22:35:24 25° 79° (ENE) 1,241 4.6 -33.1°
Drops below altitude 10° 22:38:21 10° 66° (ENE) 2,657 6.5 -32.6°
Sets 22:42:59 0° 61° (ENE) 4,844 8.0 -31.7°
